�������l�o���
Date,Time,MP-1(��Sv/h),MP-2(��Sv/h),MP-3(��Sv/h),MP-4(��Sv/h),MP-5(��Sv/h),MP-6(��Sv/h),MP-7(��Sv/h),MP-8(��Sv/h),����,����(m/s),���J
2018/04/17,00:00,0.860,1.443,0.898,1.682,1.148,0.481,0.850,0.815,��쐼,0.9,��
2018/04/17,00:10,0.859,1.440,0.899,1.683,1.151,0.481,0.850,0.813,�쐼,1.2,��
2018/04/17,00:20,0.859,1.443,0.897,1.683,1.150,0.480,0.852,0.816,�쐼,0.9,��
2018/04/17,00:30,0.860,1.444,0.897,1.685,1.150,0.481,0.851,0.815,��쐼,0.9,��
2018/04/17,00:40,0.860,1.443,0.901,1.683,1.150,0.479,0.852,0.816,-,CALM,��
2018/04/17,00:50,0.861,1.441,0.900,1.680,1.150,0.481,0.851,0.816,-,CALM,��
2018/04/17,01:00,0.861,1.436,0.900,1.681,1.149,0.480,0.851,0.816,-,CALM,��
2018/04/17,01:10,0.860,1.442,0.899,1.682,1.151,0.481,0.849,0.816,�k�k��,0.6,��
2018/04/17,01:20,0.861,1.441,0.898,1.682,1.150,0.481,0.851,0.814,�k��,0.6,��
2018/04/17,01:30,0.860,1.445,0.898,1.683,1.150,0.479,0.851,0.817,�k�k��,0.8,��
2018/04/17,01:40,0.859,1.441,0.899,1.681,1.150,0.480,0.853,0.815,�k�k��,1.1,��
2018/04/17,01:50,0.859,1.441,0.899,1.682,1.151,0.481,0.850,0.815,�k,1.4,��
2018/04/17,02:00,0.862,1.441,0.901,1.683,1.151,0.479,0.850,0.815,�k�k��,0.9,��
2018/04/17,02:10,0.861,1.443,0.898,1.682,1.151,0.480,0.853,0.817,�k,1.7,��
2018/04/17,02:20,0.860,1.441,0.898,1.681,1.149,0.481,0.854,0.815,�k�k��,1.9,��
2018/04/17,02:30,0.861,1.440,0.898,1.683,1.148,0.480,0.852,0.816,�k�k��,1.7,��
2018/04/17,02:40,0.859,1.441,0.898,1.683,1.150,0.480,0.852,0.816,�k�k��,1.2,��
2018/04/17,02:50,0.861,1.441,0.900,1.681,1.148,0.482,0.851,0.815,�k�k��,0.9,��
2018/04/17,03:00,0.859,1.441,0.899,1.681,1.149,0.481,0.851,0.814,�k,1.1,��
2018/04/17,03:10,0.859,1.443,0.897,1.683,1.150,0.480,0.852,0.815,�k�k��,0.6,��
2018/04/17,03:20,0.862,1.438,0.898,1.682,1.150,0.480,0.852,0.815,�k,1.4,��
2018/04/17,03:30,0.860,1.439,0.898,1.682,1.149,0.481,0.853,0.814,�k,1.5,��
2018/04/17,03:40,0.860,1.439,0.898,1.683,1.149,0.481,0.853,0.815,�k�k��,1.7,��
2018/04/17,03:50,0.861,1.443,0.899,1.681,1.151,0.480,0.851,0.818,�k�k��,2.3,��
2018/04/17,04:00,0.861,1.442,0.899,1.681,1.148,0.481,0.851,0.815,�k,2.6,��
2018/04/17,04:10,0.862,1.444,0.899,1.683,1.151,0.480,0.852,0.817,�k,2.3,��
2018/04/17,04:20,0.862,1.443,0.898,1.683,1.151,0.480,0.852,0.816,�k�k��,2.3,��
2018/04/17,04:30,0.861,1.441,0.900,1.680,1.153,0.482,0.853,0.815,�k�k��,2.3,��
2018/04/17,04:40,0.861,1.442,0.898,1.683,1.148,0.481,0.851,0.816,�k,3.1,��
2018/04/17,04:50,0.859,1.441,0.899,1.681,1.151,0.480,0.850,0.815,�k,3.1,��
2018/04/17,05:00,0.860,1.439,0.898,1.681,1.148,0.480,0.850,0.815,�k�k��,3.0,��
2018/04/17,05:10,0.861,1.441,0.898,1.684,1.150,0.480,0.851,0.814,�k,3.0,��
2018/04/17,05:20,0.860,1.445,0.897,1.682,1.148,0.481,0.850,0.817,�k�k��,3.5,��
2018/04/17,05:30,0.862,1.442,0.899,1.683,1.150,0.479,0.850,0.818,�k,3.6,��
2018/04/17,05:40,0.861,1.442,0.899,1.683,1.152,0.481,0.851,0.816,�k�k��,3.1,��
2018/04/17,05:50,0.860,1.442,0.899,1.685,1.152,0.482,0.850,0.816,�k�k��,2.8,��
2018/04/17,06:00,0.862,1.442,0.899,1.684,1.150,0.481,0.851,0.814,�k�k��,2.8,��
2018/04/17,06:10,0.860,1.442,0.899,1.684,1.149,0.480,0.852,0.817,�k,2.6,��
2018/04/17,06:20,0.862,1.443,0.899,1.685,1.151,0.481,0.851,0.816,�k,2.3,��
2018/04/17,06:30,0.864,1.444,0.900,1.681,1.148,0.480,0.850,0.817,�k,2.0,��
2018/04/17,06:40,0.860,1.443,0.897,1.683,1.150,0.480,0.851,0.816,�k�k��,2.6,��
2018/04/17,06:50,0.861,1.442,0.901,1.685,1.151,0.481,0.851,0.817,�k�k��,2.6,��
2018/04/17,07:00,0.861,1.441,0.899,1.681,1.152,0.480,0.852,0.815,�k��,1.9,��
2018/04/17,07:10,0.862,1.445,0.898,1.682,1.151,0.480,0.852,0.817,�k��,1.5,��
2018/04/17,07:20,0.863,1.444,0.899,1.681,1.151,0.479,0.852,0.817,�k,1.1,��
2018/04/17,07:30,0.862,1.443,0.899,1.682,1.150,0.480,0.852,0.818,�k,1.7,��
2018/04/17,07:40,0.862,1.442,0.898,1.679,1.152,0.480,0.851,0.818,�k�k��,1.1,��
2018/04/17,07:50,0.864,1.445,0.899,1.679,1.152,0.479,0.850,0.816,�k�k��,1.1,��
2018/04/17,08:00,0.861,1.444,0.899,1.680,1.150,0.481,0.850,0.818,�k,0.6,��
2018/04/17,08:10,0.861,1.441,0.901,1.682,1.153,0.480,0.850,0.817,�k,1.2,��
2018/04/17,08:20,0.863,1.441,0.897,1.683,1.150,0.479,0.852,0.817,�k�k��,1.5,��
2018/04/17,08:30,0.861,1.440,0.899,1.680,1.151,0.481,0.850,0.815,�k�k��,1.7,��
2018/04/17,08:40,0.861,1.443,0.899,1.683,1.152,0.480,0.850,0.818,�k��,0.9,��
2018/04/17,08:50,0.863,1.441,0.899,1.682,1.153,0.481,0.851,0.816,�k�k��,1.4,��
2018/04/17,09:00,0.862,1.443,0.899,1.683,1.151,0.482,0.851,0.815,�k��,1.4,��
2018/04/17,09:10,0.862,1.439,0.899,1.681,1.152,0.479,0.851,0.814,�k��,1.4,��
2018/04/17,09:20,0.865,1.443,0.901,1.683,1.151,0.479,0.849,0.815,���k��,1.7,��
2018/04/17,09:30,0.862,1.438,0.901,1.686,1.150,0.480,0.851,0.814,���k��,1.7,��
2018/04/17,09:40,0.864,1.443,0.899,1.684,1.150,0.480,0.849,0.813,��,1.4,��
2018/04/17,09:50,0.864,1.440,0.898,1.687,1.150,0.480,0.850,0.814,�k��,1.4,��
2018/04/17,10:00,0.864,1.443,0.901,1.684,1.150,0.480,0.851,0.814,�k�k��,1.9,��
2018/04/17,10:10,0.863,1.439,0.901,1.684,1.151,0.479,0.849,0.815,�k��,1.7,��
2018/04/17,10:20,0.862,1.443,0.901,1.683,1.152,0.480,0.850,0.814,���k��,2.3,��
2018/04/17,10:30,0.866,1.445,0.901,1.683,1.149,0.481,0.851,0.814,�k��,2.6,��
2018/04/17,10:40,0.863,1.441,0.902,1.687,1.150,0.480,0.851,0.816,�k��,2.6,��
2018/04/17,10:50,0.865,1.442,0.900,1.683,1.152,0.479,0.852,0.817,���k��,2.6,��
2018/04/17,11:00,0.866,1.442,0.882,1.685,1.149,0.481,0.851,0.815,��,2.0,��
2018/04/17,11:10,0.863,1.445,0.886,1.685,1.152,0.479,0.852,0.815,��,2.8,��
2018/04/17,11:20,0.863,1.442,0.891,1.685,1.151,0.479,0.851,0.816,���k��,3.1,��
2018/04/17,11:30,0.865,1.443,0.898,1.684,1.155,0.479,0.852,0.815,���k��,2.6,��
2018/04/17,11:40,0.863,1.444,0.899,1.670,1.153,0.480,0.851,0.815,��,3.5,��
2018/04/17,11:50,0.864,1.446,0.899,1.669,1.154,0.478,0.852,0.814,���k��,3.3,��
2018/04/17,12:00,0.866,1.443,0.899,1.678,1.155,0.480,0.853,0.815,���k��,2.9,��
2018/04/17,12:10,0.864,1.447,0.899,1.684,1.156,0.480,0.854,0.814,���k��,2.8,��
2018/04/17,12:20,0.864,1.446,0.901,1.686,1.154,0.479,0.853,0.816,��,3.3,��
2018/04/17,12:30,0.865,1.446,0.900,1.687,1.155,0.480,0.852,0.815,��,3.6,��
2018/04/17,12:40,0.866,1.447,0.900,1.687,1.155,0.481,0.853,0.814,��,3.1,��
2018/04/17,12:50,0.866,1.443,0.902,1.688,1.155,0.483,0.854,0.816,���쓌,3.2,��
2018/04/17,13:00,0.864,1.446,0.897,1.688,1.158,0.482,0.853,0.815,��,2.3,��
2018/04/17,13:10,0.863,1.447,0.899,1.685,1.155,0.480,0.856,0.814,���쓌,3.3,��
2018/04/17,13:20,0.865,1.448,0.900,1.689,1.156,0.481,0.854,0.815,�쓌,3.7,��
2018/04/17,13:30,0.867,1.449,0.900,1.687,1.144,0.481,0.853,0.815,�쓌,4.2,��
2018/04/17,13:40,0.864,1.449,0.900,1.688,1.151,0.482,0.855,0.815,�쓌,3.9,��
2018/04/17,13:50,0.866,1.446,0.902,1.689,1.148,0.483,0.853,0.814,�쓌,4.3,��
2018/04/17,14:00,0.865,1.445,0.903,1.691,1.150,0.482,0.853,0.815,�쓌,3.3,��
2018/04/17,14:10,0.866,1.448,0.901,1.690,1.157,0.476,0.854,0.815,�쓌,4.5,��
2018/04/17,14:20,0.867,1.446,0.903,1.690,1.158,0.472,0.853,0.814,��쓌,6.9,��
2018/04/17,14:30,0.869,1.448,0.903,1.689,1.158,0.475,0.855,0.816,��쓌,7.9,��
2018/04/17,14:40,0.867,1.451,0.901,1.691,1.157,0.472,0.856,0.816,��쓌,8.9,��
2018/04/17,14:50,0.866,1.449,0.901,1.690,1.156,0.483,0.854,0.817,��쓌,8.6,��
2018/04/17,15:00,0.869,1.447,0.902,1.688,1.158,0.482,0.853,0.814,��쓌,8.4,��
2018/04/17,15:10,0.866,1.448,0.903,1.689,1.156,0.482,0.853,0.814,��쓌,7.9,��
2018/04/17,15:20,0.866,1.448,0.903,1.689,1.160,0.483,0.854,0.815,��,7.2,��
2018/04/17,15:30,0.866,1.451,0.903,1.688,1.161,0.483,0.854,0.814,��쓌,6.6,��
2018/04/17,15:40,0.865,1.446,0.905,1.689,1.158,0.483,0.854,0.815,��,7.0,��
2018/04/17,15:50,0.866,1.450,0.901,1.687,1.160,0.483,0.854,0.815,��,6.7,��
2018/04/17,16:00,0.867,1.451,0.904,1.689,1.161,0.483,0.853,0.817,��,7.3,��
2018/04/17,16:10,0.868,1.452,0.904,1.689,1.158,0.484,0.853,0.816,��,7.4,��
2018/04/17,16:20,0.865,1.452,0.905,1.687,1.158,0.484,0.853,0.815,��,6.7,��
2018/04/17,16:30,0.867,1.451,0.903,1.690,1.161,0.485,0.854,0.817,��,6.8,��
2018/04/17,16:40,0.870,1.452,0.901,1.688,1.161,0.486,0.855,0.815,��,7.2,��
2018/04/17,16:50,0.870,1.454,0.904,1.689,1.160,0.486,0.856,0.816,��,7.4,��
2018/04/17,17:00,0.871,1.454,0.907,1.692,1.159,0.486,0.857,0.818,��,6.8,��
2018/04/17,17:10,0.870,1.451,0.906,1.693,1.157,0.484,0.855,0.817,��,5.8,��
2018/04/17,17:20,0.871,1.451,0.908,1.691,1.159,0.483,0.854,0.816,��,6.4,��
2018/04/17,17:30,0.870,1.450,0.909,1.692,1.160,0.485,0.855,0.817,��,4.8,��
2018/04/17,17:40,0.873,1.455,0.907,1.692,1.160,0.485,0.854,0.817,��,5.8,��
2018/04/17,17:50,0.870,1.454,0.909,1.692,1.159,0.485,0.855,0.819,��,5.7,��
2018/04/17,18:00,0.871,1.454,0.908,1.691,1.160,0.488,0.852,0.818,��,5.2,��
2018/04/17,18:10,0.873,1.454,0.907,1.691,1.161,0.486,0.853,0.819,��,5.0,��
2018/04/17,18:20,0.871,1.453,0.908,1.692,1.160,0.486,0.854,0.818,��,4.7,��
2018/04/17,18:30,0.871,1.454,0.908,1.694,1.161,0.486,0.854,0.818,��,6.1,��
2018/04/17,18:40,0.870,1.456,0.908,1.695,1.160,0.486,0.854,0.819,��,5.6,��
2018/04/17,18:50,0.870,1.458,0.908,1.691,1.162,0.485,0.855,0.819,��,6.2,��
2018/04/17,19:00,0.871,1.454,0.909,1.690,1.161,0.484,0.855,0.820,��,5.4,��
2018/04/17,19:10,0.872,1.457,0.907,1.692,1.161,0.485,0.855,0.819,��,6.6,��
2018/04/17,19:20,0.873,1.456,0.908,1.691,1.160,0.486,0.855,0.817,��,6.2,��
2018/04/17,19:30,0.868,1.454,0.906,1.690,1.160,0.484,0.854,0.820,��,6.0,��
2018/04/17,19:40,0.871,1.453,0.907,1.690,1.158,0.486,0.857,0.818,��,5.2,��
2018/04/17,19:50,0.871,1.455,0.908,1.688,1.158,0.487,0.854,0.818,��,5.5,��
2018/04/17,20:00,0.869,1.456,0.908,1.690,1.159,0.486,0.856,0.818,��,4.7,��
2018/04/17,20:10,0.871,1.456,0.907,1.691,1.159,0.485,0.855,0.818,��,3.9,��
2018/04/17,20:20,0.869,1.453,0.907,1.691,1.159,0.484,0.854,0.820,��,4.2,��
2018/04/17,20:30,0.870,1.455,0.905,1.691,1.160,0.486,0.855,0.819,��,4.7,��
2018/04/17,20:40,0.870,1.453,0.906,1.692,1.159,0.486,0.855,0.819,��쐼,4.4,��
2018/04/17,20:50,0.868,1.455,0.907,1.690,1.161,0.485,0.856,0.818,��쐼,4.5,�L
2018/04/17,21:00,0.871,1.453,0.907,1.691,1.161,0.485,0.857,0.817,��,5.7,�L
2018/04/17,21:10,0.870,1.452,0.904,1.692,1.161,0.485,0.855,0.817,��,5.9,�L
2018/04/17,21:20,0.870,1.453,0.905,1.692,1.162,0.486,0.855,0.818,��,5.9,�L
2018/04/17,21:30,0.868,1.453,0.907,1.693,1.157,0.486,0.853,0.818,��,4.8,��
2018/04/17,21:40,0.869,1.453,0.906,1.691,1.160,0.485,0.854,0.819,��,5.4,�L
2018/04/17,21:50,0.869,1.454,0.905,1.691,1.160,0.485,0.856,0.819,��,5.9,�L
2018/04/17,22:00,0.871,1.451,0.905,1.688,1.164,0.485,0.853,0.818,��,6.3,�L
2018/04/17,22:10,0.869,1.454,0.906,1.691,1.161,0.486,0.856,0.818,��쐼,6.6,��
2018/04/17,22:20,0.869,1.452,0.906,1.692,1.160,0.486,0.855,0.818,��쐼,6.5,��
2018/04/17,22:30,0.869,1.454,0.906,1.692,1.161,0.487,0.856,0.820,��,7.4,�L
2018/04/17,22:40,0.869,1.453,0.908,1.690,1.161,0.486,0.856,0.817,��쐼,7.4,��
2018/04/17,22:50,0.870,1.453,0.905,1.694,1.160,0.485,0.857,0.817,��쐼,6.5,��
2018/04/17,23:00,0.870,1.454,0.906,1.690,1.160,0.487,0.854,0.820,��쐼,6.8,��
2018/04/17,23:10,0.867,1.452,0.906,1.690,1.160,0.484,0.857,0.818,��,6.4,��
2018/04/17,23:20,0.870,1.455,0.906,1.691,1.159,0.485,0.855,0.818,��,6.1,��
2018/04/17,23:30,0.870,1.453,0.907,1.690,1.159,0.487,0.856,0.818,��,5.6,��
2018/04/17,23:40,0.871,1.452,0.907,1.691,1.161,0.485,0.854,0.819,��,5.3,��
2018/04/17,23:50,0.870,1.454,0.907,1.689,1.160,0.485,0.855,0.820,��,6.2,��
